Weather History for Wisconsin Rapids, WI

Change the Weather History Date:

Wednesday, November 21, 2012

  Actual Average Record
Temperature  
Mean Temperature 42 °F -  
Max Temperature 57 °F 38 °F 64 °F (1990)
Min Temperature 28 °F 21 °F 2 °F (1964)
Degree Days  
Heating Degree Days 22    
Moisture  
Dew Point 34 °F    
Average Humidity 84    
Maximum Humidity 100    
Minimum Humidity 51    
Precipitation  
Precipitation 0.00 in - - ()
Sea Level Pressure  
Sea Level Pressure 30.08 in    
Wind  
Wind Speed 4 mph (South)    
Max Wind Speed 16 mph    
Max Gust Speed 22 mph    
Visibility 4 miles    
Events Fog    
Averages and records for this station are not official NWS values.
T = Trace of Precipitation, MM = Missing Value Source: NWS Daily Summary

Daily Weather History Graph

Daily Weather History Graph

Search for Another Location

Airport:

Trip Planner

Search our weather history database for the weather conditions in past years. The results will help you decide how hot, cold, wet, or windy it might be!

Date:

Astronomy

Nov. 21, 2012 Rise Set
Actual Time 7:03 AM CST 4:26 PM CST
Civil Twilight 6:31 AM CST 4:58 PM CST
Nautical Twilight 5:56 AM CST 5:34 PM CST
Astronomical Twilight 5:21 AM CST 6:08 PM CST
Moon 12:55 PM CST (11/21) 12:08 AM CST (11/21)
Length of Visible Light 10h 26m
Length of Day
9h 22m
First Quarter, 62% of the Moon is Illuminated
Nov 21
First Quarter
Nov 28
Full
Dec 6
Last Quarter
Dec 13
New
Dec 19
First Quarter

Hourly Weather History & Observations

Time (CST) Temp. Windchill Dew Point Humidity Pressure Visibility Wind Dir Wind Speed Gust Speed Precip Events Conditions
12:03 AM 30.2 °F - 28.4 °F 93% 30.14 in 1.8 mi Calm Calm - N/A   Overcast
12:12 AM 30.2 °F - 28.4 °F 93% 30.14 in 0.8 mi Calm Calm - N/A   Mist
12:27 AM 30.2 °F - 28.4 °F 93% 30.14 in 0.2 mi Calm Calm - N/A Fog Light Freezing Fog
12:54 AM 28.9 °F - 28.0 °F 96% 30.16 in 0.2 mi Calm Calm - N/A Fog Light Freezing Fog
1:54 AM 30.0 °F - 28.0 °F 92% 30.16 in 0.2 mi Calm Calm - N/A Fog Light Freezing Fog
2:54 AM 28.9 °F - 28.0 °F 96% 30.16 in 0.2 mi Calm Calm - N/A Fog Light Freezing Fog
3:54 AM 30.0 °F - 28.9 °F 96% 30.16 in 0.2 mi Calm Calm - N/A Fog Light Freezing Fog
4:54 AM 28.9 °F - 28.0 °F 96% 30.17 in 0.2 mi Calm Calm - N/A Fog Light Freezing Fog
5:34 AM 28.4 °F - 26.6 °F 93% 30.13 in 0.5 mi Calm Calm - N/A Fog Light Freezing Fog
5:49 AM 28.4 °F 24.6 °F 26.6 °F 93% 30.12 in 1.2 mi South 3.5 mph - N/A   Partly Cloudy
5:54 AM 30.0 °F 26.5 °F 28.0 °F 92% 30.16 in 1.5 mi South 3.5 mph - N/A   Partly Cloudy
6:16 AM 30.2 °F 25.4 °F 30.2 °F 100% 30.12 in 2.0 mi South 4.6 mph - N/A   Clear
6:46 AM 32.0 °F 26.4 °F 30.2 °F 93% 30.11 in 1.8 mi South 5.8 mph - N/A   Partly Cloudy
6:54 AM 32.0 °F 26.4 °F 30.9 °F 96% 30.15 in 1.5 mi South 5.8 mph - N/A   Mostly Cloudy
7:00 AM 32.0 °F 27.5 °F 30.2 °F 93% 30.11 in 0.8 mi South 4.6 mph - N/A   Mostly Cloudy
7:48 AM 32.0 °F 26.4 °F 30.2 °F 93% 30.11 in 1.2 mi South 5.8 mph - N/A   Mostly Cloudy
7:54 AM 33.1 °F 26.9 °F 32.0 °F 96% 30.14 in 1.5 mi South 6.9 mph - N/A   Scattered Clouds
8:18 AM 33.8 °F 26.4 °F 33.8 °F 100% 30.10 in 1.0 mi South 9.2 mph - N/A   Mostly Cloudy
8:29 AM 33.8 °F 26.4 °F 33.8 °F 100% 30.09 in 0.5 mi South 9.2 mph - N/A Fog Fog
8:54 AM 35.1 °F 28.6 °F 34.0 °F 96% 30.13 in 0.2 mi South 8.1 mph - N/A Fog Fog
9:36 AM 37.4 °F 30.8 °F 35.6 °F 93% 30.09 in 1.2 mi SSW 9.2 mph - N/A   Overcast
9:54 AM 37.9 °F 32.1 °F 37.0 °F 97% 30.12 in 1.5 mi South 8.1 mph - N/A   Overcast
10:11 AM 39.2 °F 33.6 °F 39.2 °F 100% 30.08 in 2.5 mi South 8.1 mph - N/A   Mostly Cloudy
10:17 AM 41.0 °F 35.2 °F 39.2 °F 93% 30.08 in 3.0 mi South 9.2 mph - N/A   Scattered Clouds
10:54 AM 45.0 °F 38.9 °F 39.9 °F 82% 30.09 in 8.0 mi SSW 12.7 mph - N/A   Clear
11:54 AM 52.0 °F - 39.9 °F 63% 30.05 in 9.0 mi SSW 11.5 mph - N/A   Clear
12:54 PM 57.0 °F - 39.0 °F 51% 30.02 in 10.0 mi SSW 12.7 mph - N/A   Clear
1:54 PM 57.0 °F - 39.0 °F 51% 29.99 in 10.0 mi South 16.1 mph 21.9 mph N/A   Clear
2:54 PM 57.9 °F - 39.9 °F 51% 29.98 in 10.0 mi South 12.7 mph - N/A   Clear
3:54 PM 57.0 °F - 39.9 °F 53% 29.98 in 10.0 mi SSW 10.4 mph - N/A   Clear
4:54 PM 54.0 °F - 39.9 °F 59% 29.98 in 10.0 mi South 6.9 mph - N/A   Clear
5:54 PM 52.0 °F - 41.0 °F 66% 29.98 in 10.0 mi South 8.1 mph - N/A   Clear
6:54 PM 51.1 °F - 41.0 °F 68% 29.97 in 10.0 mi South 9.2 mph - N/A   Clear
7:54 PM 50.0 °F - 42.1 °F 74% 29.97 in 10.0 mi South 10.4 mph - N/A   Clear
8:54 PM 48.9 °F - 42.1 °F 77% 29.96 in 8.0 mi South 5.8 mph - N/A   Clear
9:54 PM 48.0 °F - 41.0 °F 77% 29.96 in 8.0 mi South 6.9 mph - N/A   Clear
10:54 PM 48.0 °F - 41.0 °F 77% 29.94 in 8.0 mi South 8.1 mph - N/A   Clear
11:54 PM 46.9 °F - 39.9 °F 77% 29.92 in 10.0 mi South 6.9 mph - N/A   Clear